nws-alerts: Checking more than four warning/county codes can delay the loading of your pages. You should use a cron job to get the data.
EllijayWeather Station Historical Data
Daily Summary for February 21, 2019 Units:  English    Metric   Both
Daily Weekly Monthly Yearly Custom
  High: Low: Average:
Temperature: 58.3 °F 49.6 °F 53.8 °F
Dew Point: 58.3 °F 49.5 °F 53.6 °F
Humidity: 100% 95% 99%
Wind Speed: 4.0mph 0.0mph 0.1mph
Wind Gust: 8.0mph - -
Wind- - SW
Pressure: 30.18 in 30.06 in -
Precipitation: 1.05 in    
Historical Graphs
 
 
Tabular Data for February 21, 2019
Time Temperature Dew Point Pressure Wind Wind Speed Wind Gust Humidity Rainfall Rate (Hourly) solar
00:04 49.6 °F 49.5 °F 30.10 in Calm     99% 0.04 in meteobridge W/m2
00:09 49.6 °F 49.5 °F 30.11 in Calm     99% 0.04 in meteobridge W/m2
00:13 49.6 °F 49.5 °F 30.11 in Calm     99% 0.03 in meteobridge W/m2
00:19 49.6 °F 49.5 °F 30.11 in SE 0.9 mph 1.0 mph 99% 0.03 in meteobridge W/m2
00:24 49.6 °F 49.5 °F 30.11 in Calm     99% 0.05 in meteobridge W/m2
00:29 49.6 °F 49.5 °F 30.10 in Calm     99% 0.07 in meteobridge W/m2
00:34 49.6 °F 49.5 °F 30.10 in Calm     99% 0.06 in meteobridge W/m2
00:39 49.6 °F 49.5 °F 30.11 in Calm   1.0 mph 99% 0.06 in meteobridge W/m2
00:44 49.6 °F 49.5 °F 30.11 in Calm     99% 0.05 in meteobridge W/m2
00:49 49.6 °F 49.5 °F 30.11 in Calm     99% 0.05 in meteobridge W/m2
00:54 49.6 °F 49.5 °F 30.10 in Calm     99% 0.05 in meteobridge W/m2
00:59 49.6 °F 49.5 °F 30.10 in Calm     99% 0.05 in meteobridge W/m2
01:04 49.6 °F 49.5 °F 30.11 in Calm     99% 0.04 in meteobridge W/m2
01:09 49.6 °F 49.5 °F 30.10 in Calm     99% 0.04 in meteobridge W/m2
01:14 49.6 °F 49.5 °F 30.10 in Calm     99% 0.04 in meteobridge W/m2
01:19 49.8 °F 49.5 °F 30.11 in North 2.0 mph 3.0 mph 99% 0.04 in meteobridge W/m2
01:23 49.6 °F 49.5 °F 30.10 in Calm     99% 0.02 in meteobridge W/m2
01:29 49.6 °F 49.5 °F 30.10 in Calm     99% 0.00 in meteobridge W/m2
01:34 49.6 °F 49.5 °F 30.11 in Calm     99% 0.00 in meteobridge W/m2
01:39 49.6 °F 49.5 °F 30.10 in Calm     99% 0.00 in meteobridge W/m2
01:44 49.6 °F 49.5 °F 30.11 in Calm     99% 0.00 in meteobridge W/m2
01:49 49.6 °F 49.5 °F 30.10 in Calm     99% 0.00 in meteobridge W/m2
01:54 49.6 °F 49.5 °F 30.10 in Calm     99% 0.00 in meteobridge W/m2
01:59 49.8 °F 49.5 °F 30.10 in Calm     99% 0.01 in meteobridge W/m2
02:04 49.8 °F 49.5 °F 30.10 in Calm     99% 0.01 in meteobridge W/m2
02:09 49.8 °F 49.5 °F 30.09 in Calm     99% 0.01 in meteobridge W/m2
02:14 49.8 °F 49.5 °F 30.09 in Calm     99% 0.01 in meteobridge W/m2
02:19 49.8 °F 49.5 °F 30.09 in Calm     99% 0.01 in meteobridge W/m2
02:24 49.8 °F 49.5 °F 30.08 in Calm     99% 0.01 in meteobridge W/m2
02:29 49.8 °F 49.5 °F 30.09 in Calm     99% 0.01 in meteobridge W/m2
02:34 49.8 °F 49.5 °F 30.08 in Calm     99% 0.01 in meteobridge W/m2
02:39 49.8 °F 49.5 °F 30.09 in Calm     99% 0.01 in meteobridge W/m2
02:44 50.0 °F 49.6 °F 30.08 in Calm     99% 0.01 in meteobridge W/m2
02:49 49.8 °F 49.5 °F 30.08 in Calm     99% 0.01 in meteobridge W/m2
02:54 50.0 °F 49.6 °F 30.08 in Calm     99% 0.01 in meteobridge W/m2
02:59 50.0 °F 49.6 °F 30.08 in Calm     99% 0.00 in meteobridge W/m2
03:04 50.0 °F 49.6 °F 30.08 in Calm     99% 0.00 in meteobridge W/m2
03:09 50.0 °F 49.6 °F 30.08 in Calm     99% 0.00 in meteobridge W/m2
03:14 49.8 °F 49.5 °F 30.09 in Calm     99% 0.00 in meteobridge W/m2
03:19 50.0 °F 49.6 °F 30.09 in Calm     99% 0.00 in meteobridge W/m2
03:24 49.8 °F 49.5 °F 30.09 in Calm     99% 0.00 in meteobridge W/m2
03:29 49.8 °F 49.5 °F 30.09 in Calm     99% 0.00 in meteobridge W/m2
03:34 49.8 °F 49.5 °F 30.08 in Calm     99% 0.00 in meteobridge W/m2
03:39 49.8 °F 49.5 °F 30.08 in Calm     99% 0.00 in meteobridge W/m2
03:44 50.0 °F 49.6 °F 30.08 in Calm     99% 0.01 in meteobridge W/m2
03:49 49.8 °F 49.5 °F 30.08 in Calm     99% 0.02 in meteobridge W/m2
03:54 49.8 °F 49.5 °F 30.08 in Calm     99% 0.03 in meteobridge W/m2
03:59 49.8 °F 49.5 °F 30.08 in Calm     99% 0.04 in meteobridge W/m2
04:04 49.8 °F 49.5 °F 30.07 in Calm     99% 0.04 in meteobridge W/m2
04:09 50.0 °F 49.6 °F 30.07 in Calm     99% 0.04 in meteobridge W/m2
04:14 50.0 °F 49.6 °F 30.06 in Calm     99% 0.04 in meteobridge W/m2
04:19 50.0 °F 49.6 °F 30.07 in Calm     99% 0.04 in meteobridge W/m2
04:24 49.8 °F 49.5 °F 30.07 in Calm     99% 0.04 in meteobridge W/m2
04:29 49.8 °F 49.5 °F 30.08 in Calm     99% 0.04 in meteobridge W/m2
04:34 50.0 °F 49.6 °F 30.08 in Calm     99% 0.04 in meteobridge W/m2
04:39 50.0 °F 49.6 °F 30.09 in Calm     99% 0.04 in meteobridge W/m2
04:44 50.0 °F 49.6 °F 30.09 in Calm     99% 0.03 in meteobridge W/m2
04:49 50.0 °F 49.6 °F 30.09 in Calm     99% 0.02 in meteobridge W/m2
04:54 50.0 °F 49.6 °F 30.09 in Calm     99% 0.02 in meteobridge W/m2
04:59 50.0 °F 49.6 °F 30.09 in Calm     99% 0.01 in meteobridge W/m2
05:04 50.0 °F 49.6 °F 30.10 in Calm     99% 0.01 in meteobridge W/m2
05:09 50.2 °F 50.2 °F 30.11 in Calm     100% 0.01 in meteobridge W/m2
05:14 50.2 °F 50.2 °F 30.11 in Calm     100% 0.02 in meteobridge W/m2
05:19 50.4 °F 50.4 °F 30.10 in Calm     100% 0.02 in meteobridge W/m2
05:24 50.4 °F 50.4 °F 30.10 in Calm     100% 0.02 in meteobridge W/m2
05:29 50.4 °F 50.4 °F 30.10 in Calm     100% 0.03 in meteobridge W/m2
05:34 50.2 °F 50.2 °F 30.12 in Calm     100% 0.03 in meteobridge W/m2
05:39 50.2 °F 50.2 °F 30.14 in Calm     100% 0.04 in meteobridge W/m2
05:44 50.2 °F 50.2 °F 30.13 in Calm     100% 0.05 in meteobridge W/m2
05:49 50.2 °F 50.2 °F 30.13 in Calm     100% 0.07 in meteobridge W/m2
05:54 50.2 °F 50.2 °F 30.13 in Calm   3.0 mph 100% 0.07 in meteobridge W/m2
05:59 50.4 °F 50.4 °F 30.11 in Calm   2.0 mph 100% 0.08 in meteobridge W/m2
06:04 50.4 °F 50.0 °F 30.12 in Calm     99% 0.08 in meteobridge W/m2
06:09 50.4 °F 50.4 °F 30.13 in Calm     100% 0.08 in meteobridge W/m2
06:14 50.4 °F 50.4 °F 30.13 in Calm     100% 0.08 in meteobridge W/m2
06:19 50.4 °F 50.4 °F 30.13 in Calm     100% 0.08 in meteobridge W/m2
06:24 50.4 °F 50.0 °F 30.12 in Calm     99% 0.08 in meteobridge W/m2
06:29 50.4 °F 50.4 °F 30.12 in Calm     100% 0.07 in meteobridge W/m2
06:34 50.4 °F 50.0 °F 30.13 in Calm     99% 0.07 in meteobridge W/m2
06:39 50.4 °F 50.4 °F 30.12 in Calm     100% 0.07 in meteobridge W/m2
06:44 50.4 °F 50.4 °F 30.12 in Calm     100% 0.06 in meteobridge W/m2
06:49 50.4 °F 50.4 °F 30.12 in Calm     100% 0.04 in meteobridge W/m2
06:54 50.4 °F 50.4 °F 30.12 in Calm   1.0 mph 100% 0.04 in meteobridge W/m2
06:59 50.4 °F 50.0 °F 30.13 in Calm     99% 0.03 in meteobridge W/m2
07:04 50.4 °F 50.4 °F 30.13 in Calm     100% 0.04 in meteobridge W/m2
07:09 50.4 °F 50.4 °F 30.14 in Calm     100% 0.04 in meteobridge W/m2
07:14 50.4 °F 50.4 °F 30.15 in Calm     100% 0.03 in meteobridge W/m2
07:19 50.5 °F 50.5 °F 30.15 in Calm     100% 0.04 in meteobridge W/m2
07:24 50.5 °F 50.2 °F 30.14 in Calm     99% 0.04 in meteobridge W/m2
07:29 50.5 °F 50.2 °F 30.14 in Calm   2.0 mph 99% 0.06 in meteobridge W/m2
07:34 50.5 °F 50.2 °F 30.15 in Calm     99% 0.06 in meteobridge W/m2
07:39 50.5 °F 50.2 °F 30.15 in Calm     99% 0.06 in meteobridge W/m2
07:44 50.5 °F 50.2 °F 30.16 in Calm     99% 0.08 in meteobridge W/m2
07:49 50.7 °F 50.7 °F 30.17 in Calm     100% 0.09 in meteobridge W/m2
07:54 50.7 °F 50.7 °F 30.16 in Calm     100% 0.09 in meteobridge W/m2
07:59 50.9 °F 50.9 °F 30.16 in Calm     100% 0.10 in meteobridge W/m2
08:04 50.9 °F 50.9 °F 30.16 in Calm     100% 0.10 in meteobridge W/m2
08:09 51.1 °F 51.1 °F 30.16 in Calm     100% 0.12 in meteobridge W/m2
08:14 51.1 °F 51.1 °F 30.17 in Calm     100% 0.14 in meteobridge W/m2
08:19 51.1 °F 51.1 °F 30.17 in Calm   2.0 mph 100% 0.15 in meteobridge W/m2
08:24 50.9 °F 50.9 °F 30.18 in Calm     100% 0.17 in meteobridge W/m2
08:29 50.9 °F 50.9 °F 30.17 in Calm     100% 0.17 in meteobridge W/m2
08:34 50.9 °F 50.9 °F 30.18 in Calm     100% 0.17 in meteobridge W/m2
08:39 51.1 °F 51.1 °F 30.18 in Calm     100% 0.16 in meteobridge W/m2
08:44 51.1 °F 51.1 °F 30.18 in Calm     100% 0.15 in meteobridge W/m2
08:49 51.1 °F 51.1 °F 30.17 in Calm     100% 0.14 in meteobridge W/m2
08:54 51.1 °F 51.1 °F 30.17 in Calm     100% 0.13 in meteobridge W/m2
08:59 51.1 °F 51.1 °F 30.17 in Calm     100% 0.12 in meteobridge W/m2
09:04 51.1 °F 51.1 °F 30.17 in Calm     100% 0.11 in meteobridge W/m2
09:09 51.3 °F 51.3 °F 30.17 in Calm     100% 0.09 in meteobridge W/m2
09:14 51.3 °F 51.3 °F 30.17 in Calm     100% 0.07 in meteobridge W/m2
09:19 51.4 °F 51.4 °F 30.17 in Calm     100% 0.05 in meteobridge W/m2
09:24 51.6 °F 51.6 °F 30.17 in Calm     100% 0.03 in meteobridge W/m2
09:29 52.2 °F 52.2 °F 30.17 in Calm     100% 0.02 in meteobridge W/m2
09:34 52.3 °F 52.3 °F 30.16 in Calm     100% 0.02 in meteobridge W/m2
09:39 52.7 °F 52.7 °F 30.16 in Calm     100% 0.01 in meteobridge W/m2
09:44 53.2 °F 53.2 °F 30.16 in Calm     100% 0.00 in meteobridge W/m2
09:49 53.6 °F 53.6 °F 30.15 in Calm     100% 0.00 in meteobridge W/m2
09:54 54.1 °F 54.1 °F 30.16 in Calm     100% 0.00 in meteobridge W/m2
09:59 54.1 °F 54.1 °F 30.16 in Calm     100% 0.00 in meteobridge W/m2
10:04 54.1 °F 54.1 °F 30.16 in Calm     100% 0.00 in meteobridge W/m2
10:09 54.3 °F 54.3 °F 30.15 in Calm     100% 0.00 in meteobridge W/m2
10:14 54.5 °F 54.5 °F 30.15 in Calm     100% 0.00 in meteobridge W/m2
10:19 54.9 °F 54.9 °F 30.16 in Calm     100% 0.00 in meteobridge W/m2
10:24 54.9 °F 54.9 °F 30.16 in Calm   2.0 mph 100% 0.00 in meteobridge W/m2
10:29 55.0 °F 55.0 °F 30.17 in Calm     100% 0.00 in meteobridge W/m2
10:34 55.2 °F 55.2 °F 30.17 in Calm     100% 0.00 in meteobridge W/m2
10:39 55.4 °F 55.4 °F 30.17 in Calm     100% 0.00 in meteobridge W/m2
10:44 55.6 °F 55.6 °F 30.17 in Calm     100% 0.00 in meteobridge W/m2
10:49 55.8 °F 55.8 °F 30.17 in Calm     100% 0.00 in meteobridge W/m2
10:54 55.8 °F 55.8 °F 30.16 in Calm     100% 0.00 in meteobridge W/m2
10:59 55.9 °F 55.9 °F 30.17 in Calm     100% 0.00 in meteobridge W/m2
11:04 56.1 °F 56.1 °F 30.16 in Calm     100% 0.00 in meteobridge W/m2
11:09 56.3 °F 56.3 °F 30.16 in Calm     100% 0.00 in meteobridge W/m2
11:14 56.5 °F 56.5 °F 30.17 in Calm     100% 0.00 in meteobridge W/m2
11:19 56.7 °F 56.7 °F 30.16 in Calm     100% 0.00 in meteobridge W/m2
11:24 56.8 °F 56.8 °F 30.17 in Calm     100% 0.00 in meteobridge W/m2
11:29 56.8 °F 56.8 °F 30.17 in Calm     100% 0.00 in meteobridge W/m2
11:34 56.8 °F 56.8 °F 30.16 in Calm     100% 0.00 in meteobridge W/m2
11:39 56.8 °F 56.8 °F 30.17 in Calm     100% 0.00 in meteobridge W/m2
11:44 56.8 °F 56.8 °F 30.17 in NW 0.9 mph 1.0 mph 100% 0.00 in meteobridge W/m2
11:49 56.8 °F 56.8 °F 30.17 in Calm     100% 0.00 in meteobridge W/m2
11:54 56.8 °F 56.8 °F 30.17 in Calm     100% 0.00 in meteobridge W/m2
11:59 56.8 °F 56.8 °F 30.17 in Calm     100% 0.00 in meteobridge W/m2
12:04 56.7 °F 56.7 °F 30.16 in Calm   2.0 mph 100% 0.00 in meteobridge W/m2
12:09 56.7 °F 56.7 °F 30.17 in Calm     100% 0.00 in meteobridge W/m2
12:14 56.7 °F 56.7 °F 30.16 in Calm     100% 0.00 in meteobridge W/m2
12:19 56.7 °F 56.7 °F 30.16 in Calm     100% 0.00 in meteobridge W/m2
12:24 56.8 °F 56.8 °F 30.16 in Calm     100% 0.00 in meteobridge W/m2
12:29 56.8 °F 56.8 °F 30.16 in Calm     100% 0.00 in meteobridge W/m2
12:34 56.8 °F 56.8 °F 30.16 in Calm     100% 0.00 in meteobridge W/m2
12:39 56.8 °F 56.8 °F 30.16 in Calm     100% 0.00 in meteobridge W/m2
12:44 56.8 °F 56.5 °F 30.15 in Calm     99% 0.00 in meteobridge W/m2
12:49 56.8 °F 56.5 °F 30.15 in Calm     99% 0.00 in meteobridge W/m2
12:54 56.8 °F 56.5 °F 30.15 in Calm     99% 0.00 in meteobridge W/m2
12:59 57.0 °F 56.7 °F 30.15 in Calm     99% 0.00 in meteobridge W/m2
13:04 56.8 °F 56.5 °F 30.15 in Calm     99% 0.00 in meteobridge W/m2
13:09 56.8 °F 56.5 °F 30.15 in Calm     99% 0.00 in meteobridge W/m2
13:14 57.0 °F 56.7 °F 30.15 in Calm     99% 0.00 in meteobridge W/m2
13:19 57.0 °F 56.7 °F 30.14 in Calm     99% 0.00 in meteobridge W/m2
13:24 57.2 °F 56.8 °F 30.14 in Calm     99% 0.00 in meteobridge W/m2
13:29 57.0 °F 56.7 °F 30.14 in Calm     99% 0.00 in meteobridge W/m2
13:34 57.2 °F 56.8 °F 30.14 in Calm     99% 0.00 in meteobridge W/m2
13:39 57.4 °F 57.0 °F 30.14 in Calm     99% 0.00 in meteobridge W/m2
13:44 57.4 °F 57.0 °F 30.13 in Calm     99% 0.00 in meteobridge W/m2
13:49 57.4 °F 57.0 °F 30.13 in Calm     99% 0.00 in meteobridge W/m2
13:54 57.4 °F 57.0 °F 30.13 in Calm     99% 0.00 in meteobridge W/m2
13:59 57.4 °F 57.0 °F 30.13 in Calm     99% 0.00 in meteobridge W/m2
14:04 57.4 °F 57.0 °F 30.13 in Calm     99% 0.00 in meteobridge W/m2
14:09 57.4 °F 57.0 °F 30.13 in Calm     99% 0.00 in meteobridge W/m2
14:14 57.6 °F 57.2 °F 30.13 in Calm     99% 0.00 in meteobridge W/m2
14:19 57.6 °F 57.2 °F 30.13 in Calm   1.0 mph 99% 0.00 in meteobridge W/m2
14:24 57.6 °F 57.2 °F 30.12 in Calm     99% 0.00 in meteobridge W/m2
14:29 57.7 °F 57.4 °F 30.13 in Calm     99% 0.00 in meteobridge W/m2
14:34 57.7 °F 57.4 °F 30.13 in Calm     99% 0.00 in meteobridge W/m2
14:39 57.7 °F 57.4 °F 30.13 in Calm     99% 0.00 in meteobridge W/m2
14:44 57.7 °F 57.4 °F 30.13 in Calm     99% 0.00 in meteobridge W/m2
14:49 57.7 °F 57.4 °F 30.13 in Calm     99% 0.00 in meteobridge W/m2
14:54 57.7 °F 57.4 °F 30.13 in Calm     99% 0.00 in meteobridge W/m2
14:59 57.7 °F 57.4 °F 30.12 in Calm     99% 0.00 in meteobridge W/m2
15:04 57.7 °F 57.4 °F 30.12 in Calm   1.0 mph 99% 0.00 in meteobridge W/m2
15:09 57.7 °F 57.4 °F 30.12 in Calm     99% 0.00 in meteobridge W/m2
15:14 57.7 °F 57.4 °F 30.12 in Calm     99% 0.00 in meteobridge W/m2
15:19 57.7 °F 57.4 °F 30.12 in Calm     99% 0.00 in meteobridge W/m2
15:24 57.7 °F 57.4 °F 30.12 in Calm     99% 0.00 in meteobridge W/m2
15:29 57.7 °F 57.4 °F 30.13 in Calm     99% 0.00 in meteobridge W/m2
15:34 57.6 °F 57.2 °F 30.13 in Calm     99% 0.00 in meteobridge W/m2
15:39 57.6 °F 57.2 °F 30.13 in Calm     99% 0.00 in meteobridge W/m2
15:44 57.6 °F 57.2 °F 30.13 in Calm     99% 0.01 in meteobridge W/m2
15:49 57.7 °F 57.4 °F 30.13 in Calm     99% 0.01 in meteobridge W/m2
15:54 57.7 °F 57.4 °F 30.13 in Calm     99% 0.02 in meteobridge W/m2
15:59 57.7 °F 57.4 °F 30.13 in Calm     99% 0.02 in meteobridge W/m2
16:04 57.7 °F 57.4 °F 30.13 in Calm     99% 0.02 in meteobridge W/m2
16:09 57.7 °F 57.4 °F 30.13 in Calm     99% 0.03 in meteobridge W/m2
16:14 57.9 °F 57.6 °F 30.13 in Calm     99% 0.03 in meteobridge W/m2
16:19 57.7 °F 57.4 °F 30.13 in Calm     99% 0.03 in meteobridge W/m2
16:24 57.7 °F 57.4 °F 30.14 in Calm     99% 0.04 in meteobridge W/m2
16:29 57.7 °F 57.4 °F 30.13 in Calm     99% 0.05 in meteobridge W/m2
16:34 57.7 °F 57.4 °F 30.13 in Calm     99% 0.06 in meteobridge W/m2
16:39 57.9 °F 57.6 °F 30.12 in Calm     99% 0.07 in meteobridge W/m2
16:44 57.9 °F 57.6 °F 30.12 in Calm     99% 0.06 in meteobridge W/m2
16:49 57.9 °F 57.9 °F 30.12 in Calm     100% 0.06 in meteobridge W/m2
16:54 57.9 °F 57.9 °F 30.12 in Calm     100% 0.05 in meteobridge W/m2
16:59 57.7 °F 57.4 °F 30.12 in Calm     99% 0.05 in meteobridge W/m2
17:04 57.7 °F 57.4 °F 30.12 in Calm     99% 0.05 in meteobridge W/m2
17:09 57.7 °F 57.4 °F 30.12 in Calm     99% 0.04 in meteobridge W/m2
17:14 57.9 °F 57.9 °F 30.12 in Calm     100% 0.04 in meteobridge W/m2
17:19 57.9 °F 57.9 °F 30.12 in Calm     100% 0.04 in meteobridge W/m2
17:24 57.9 °F 57.9 °F 30.11 in Calm     100% 0.04 in meteobridge W/m2
17:29 58.3 °F 58.3 °F 30.11 in Calm     100% 0.02 in meteobridge W/m2
17:34 58.3 °F 58.3 °F 30.11 in Calm     100% 0.01 in meteobridge W/m2
17:39 58.3 °F 58.3 °F 30.10 in Calm     100% 0.00 in meteobridge W/m2
17:44 58.3 °F 58.3 °F 30.11 in Calm     100% 0.00 in meteobridge W/m2
17:49 58.3 °F 58.3 °F 30.11 in Calm     100% 0.00 in meteobridge W/m2
17:54 58.3 °F 58.3 °F 30.11 in Calm     100% 0.00 in meteobridge W/m2
17:59 58.1 °F 58.1 °F 30.11 in Calm     100% 0.00 in meteobridge W/m2
18:04 57.9 °F 57.9 °F 30.11 in Calm     100% 0.00 in meteobridge W/m2
18:09 57.9 °F 57.6 °F 30.11 in Calm     99% 0.00 in meteobridge W/m2
18:14 57.7 °F 57.4 °F 30.11 in Calm     99% 0.00 in meteobridge W/m2
18:19 57.7 °F 57.4 °F 30.11 in Calm     99% 0.00 in meteobridge W/m2
18:24 57.7 °F 57.4 °F 30.11 in Calm     99% 0.00 in meteobridge W/m2
18:29 57.7 °F 57.4 °F 30.11 in Calm     99% 0.00 in meteobridge W/m2
18:34 57.6 °F 57.2 °F 30.11 in Calm     99% 0.00 in meteobridge W/m2
18:39 57.6 °F 57.2 °F 30.11 in Calm     99% 0.00 in meteobridge W/m2
18:44 57.6 °F 57.6 °F 30.12 in Calm     100% 0.00 in meteobridge W/m2
18:49 57.6 °F 57.6 °F 30.12 in Calm     100% 0.00 in meteobridge W/m2
18:54 57.4 °F 57.4 °F 30.13 in Calm     100% 0.00 in meteobridge W/m2
18:59 57.4 °F 57.4 °F 30.12 in Calm     100% 0.00 in meteobridge W/m2
19:04 57.4 °F 57.4 °F 30.12 in Calm     100% 0.00 in meteobridge W/m2
19:09 57.4 °F 57.4 °F 30.12 in Calm     100% 0.00 in meteobridge W/m2
19:14 57.4 °F 57.4 °F 30.12 in Calm     100% 0.00 in meteobridge W/m2
19:19 57.6 °F 57.6 °F 30.12 in Calm     100% 0.00 in meteobridge W/m2
19:24 57.4 °F 57.4 °F 30.13 in Calm   2.0 mph 100% 0.00 in meteobridge W/m2
19:29 57.0 °F 56.7 °F 30.13 in Calm     99% 0.00 in meteobridge W/m2
19:34 57.0 °F 56.7 °F 30.13 in Calm   1.0 mph 99% 0.00 in meteobridge W/m2
19:39 57.0 °F 56.7 °F 30.13 in Calm     99% 0.00 in meteobridge W/m2
19:44 57.2 °F 57.2 °F 30.13 in Calm     100% 0.00 in meteobridge W/m2
19:48 57.2 °F 57.2 °F 30.13 in Calm     100% 0.01 in meteobridge W/m2
19:54 57.0 °F 57.0 °F 30.12 in Calm     100% 0.02 in meteobridge W/m2
19:59 57.0 °F 57.0 °F 30.12 in Calm   3.0 mph 100% 0.02 in meteobridge W/m2
20:04 56.8 °F 56.8 °F 30.12 in Calm     100% 0.02 in meteobridge W/m2
20:09 56.8 °F 56.5 °F 30.13 in Calm   2.0 mph 99% 0.05 in meteobridge W/m2
20:14 56.7 °F 56.7 °F 30.13 in Calm   3.0 mph 100% 0.09 in meteobridge W/m2
20:19 56.7 °F 56.7 °F 30.12 in Calm     100% 0.10 in meteobridge W/m2
20:24 56.7 °F 56.7 °F 30.13 in Calm   1.0 mph 100% 0.11 in meteobridge W/m2
20:29 56.7 °F 56.3 °F 30.13 in Calm   2.0 mph 99% 0.13 in meteobridge W/m2
20:34 56.7 °F 56.3 °F 30.13 in Calm     99% 0.15 in meteobridge W/m2
20:39 56.7 °F 56.3 °F 30.14 in Calm     99% 0.17 in meteobridge W/m2
20:44 56.7 °F 56.7 °F 30.14 in WNW 4.0 mph 4.0 mph 100% 0.21 in meteobridge W/m2
20:49 56.5 °F 56.1 °F 30.14 in WNW 2.0 mph 4.0 mph 99% 0.22 in meteobridge W/m2
20:54 56.5 °F 56.1 °F 30.14 in Calm   4.0 mph 99% 0.21 in meteobridge W/m2
20:59 56.1 °F 55.6 °F 30.14 in NW 0.9 mph 5.0 mph 98% 0.21 in meteobridge W/m2
21:04 55.9 °F 55.4 °F 30.14 in Calm   1.0 mph 98% 0.21 in meteobridge W/m2
21:09 55.8 °F 55.2 °F 30.14 in Calm   2.0 mph 98% 0.18 in meteobridge W/m2
21:14 55.6 °F 55.0 °F 30.14 in NW 0.9 mph 1.0 mph 98% 0.15 in meteobridge W/m2
21:19 55.4 °F 54.9 °F 30.13 in Calm   3.0 mph 98% 0.14 in meteobridge W/m2
21:24 55.2 °F 54.7 °F 30.12 in NE 0.9 mph 4.0 mph 98% 0.15 in meteobridge W/m2
21:29 55.0 °F 54.5 °F 30.14 in Calm   5.0 mph 98% 0.14 in meteobridge W/m2
21:34 55.0 °F 54.5 °F 30.16 in Calm     98% 0.13 in meteobridge W/m2
21:39 54.9 °F 54.3 °F 30.16 in Calm   4.0 mph 98% 0.13 in meteobridge W/m2
21:44 54.7 °F 53.8 °F 30.16 in WNW 2.0 mph 8.0 mph 97% 0.10 in meteobridge W/m2
21:49 54.1 °F 52.7 °F 30.17 in Calm   7.0 mph 95% 0.10 in meteobridge W/m2
21:54 53.8 °F 52.7 °F 30.16 in West 2.9 mph 8.0 mph 96% 0.11 in meteobridge W/m2
21:59 53.4 °F 52.5 °F 30.17 in Calm   1.0 mph 97% 0.11 in meteobridge W/m2
22:04 53.2 °F 52.3 °F 30.15 in Calm   2.0 mph 97% 0.11 in meteobridge W/m2
22:09 53.1 °F 52.2 °F 30.14 in Calm     97% 0.12 in meteobridge W/m2
22:14 52.9 °F 52.0 °F 30.15 in Calm     97% 0.11 in meteobridge W/m2
22:19 52.9 °F 52.3 °F 30.17 in Calm     98% 0.12 in meteobridge W/m2
22:24 52.9 °F 52.3 °F 30.16 in Calm     98% 0.12 in meteobridge W/m2
22:29 52.9 °F 52.5 °F 30.17 in Calm     99% 0.14 in meteobridge W/m2
22:34 52.9 °F 52.5 °F 30.16 in Calm     99% 0.16 in meteobridge W/m2
22:39 52.9 °F 52.5 °F 30.16 in Calm     99% 0.15 in meteobridge W/m2
22:44 52.9 °F 52.5 °F 30.16 in Calm     99% 0.14 in meteobridge W/m2
22:49 52.7 °F 52.3 °F 30.16 in NNE 2.0 mph 2.0 mph 99% 0.13 in meteobridge W/m2
22:54 52.7 °F 52.3 °F 30.16 in Calm     99% 0.13 in meteobridge W/m2
22:59 52.7 °F 52.3 °F 30.15 in Calm     99% 0.13 in meteobridge W/m2
23:04 52.5 °F 52.2 °F 30.16 in Calm     99% 0.13 in meteobridge W/m2
23:09 52.5 °F 52.2 °F 30.16 in Calm     99% 0.13 in meteobridge W/m2
23:14 52.5 °F 52.2 °F 30.15 in Calm     99% 0.13 in meteobridge W/m2
23:19 52.5 °F 52.2 °F 30.15 in Calm     99% 0.14 in meteobridge W/m2
23:24 52.5 °F 52.2 °F 30.15 in NW 2.0 mph 4.0 mph 99% 0.13 in meteobridge W/m2
23:29 52.2 °F 51.8 °F 30.16 in Calm   6.0 mph 99% 0.11 in meteobridge W/m2
23:34 52.0 °F 51.4 °F 30.16 in Calm     98% 0.08 in meteobridge W/m2
23:39 51.8 °F 51.4 °F 30.15 in Calm   2.0 mph 99% 0.07 in meteobridge W/m2
23:44 51.6 °F 51.3 °F 30.15 in Calm   1.0 mph 99% 0.08 in meteobridge W/m2
23:49 51.6 °F 51.3 °F 30.15 in Calm   1.0 mph 99% 0.07 in meteobridge W/m2
23:54 51.4 °F 51.1 °F 30.15 in Calm     99% 0.06 in meteobridge W/m2
23:59 51.3 °F 50.9 °F 30.14 in Calm     99% 0.07 in meteobridge W/m2
EllijayWeather
Compliments of Weather Underground - 2.5 mb